Printer-friendly version

IAU Minor Planet Center

Minor Planet Center

MPEC 2005-O32 : 2005 OX

The following Minor Planet Electronic Circular may be linked-to from your own Web pages, but must not otherwise be redistributed electronically.


Read MPEC 2005-O31 Read MPEC 2005-O33


M.P.E.C. 2005-O32                                Issued 2005 July 26, 13:35 UT

     The Minor Planet Electronic Circulars contain information on unusual
         minor planets and routine data on comets.  They are published
   on behalf of Commission 20 of the International Astronomical Union by the
          Minor Planet Center, Smithsonian Astrophysical Observatory,
                          Cambridge, MA 02138, U.S.A.

                  Supported in part by the Brinson Foundation
             Prepared using the Tamkin Foundation Computer Network

                              MPC@CFA.HARVARD.EDU
          URL http://cfa-www.harvard.edu/iau/mpc.html  ISSN 1523-6714

                                    2005 OX

Observations:
     K05O00X* C2005 07 25.70381 21 00 32.54 -34 32 12.0          18.4 V EO032E12
     K05O00X  C2005 07 25.71377 21 00 30.02 -34 32 31.9          17.9 V EO032E12
     K05O00X  C2005 07 25.72373 21 00 27.32 -34 32 52.4          17.5 V EO032E12
     K05O00X  C2005 07 25.74369 21 00 22.10 -34 33 30.8          17.8 V EO032E12
     K05O00X  C2005 07 25.75537 21 00 18.97 -34 33 53.8          17.8 V EO032E12
     K05O00X  C2005 07 25.76701 21 00 15.91 -34 34 16.2          18.0 V EO032E12
     K05O00X  C2005 07 26.16806 20 58 35.37 -34 48 39.6          18.5 R EO032I77
     K05O00X  C2005 07 26.17234 20 58 34.13 -34 48 47.9          18.9 R EO032I77
     K05O00X  C2005 07 26.17556 20 58 33.27 -34 48 55.1          18.4 R EO032I77
     K05O00X 5C2005 07 26.35544 20 57 45.89 -34 55 54.6          17.0 R EO032673
     K05O00X 5C2005 07 26.35683 20 57 45.50 -34 55 57.3                 EO032673
     K05O00X 5C2005 07 26.36586 20 57 42.89 -34 56 17.2                 EO032673
     K05O00X 5C2005 07 26.36726 20 57 42.49 -34 56 20.2                 EO032673
     K05O00X 5C2005 07 26.37627 20 57 39.87 -34 56 39.7                 EO032673
     K05O00X 5C2005 07 26.37766 20 57 39.46 -34 56 42.6                 EO032673

Observer details:
673 Table Mountain Observatory, Wrightwood.  Observer D. Mayes.  0.6-m
    reflector + CCD.
E12 Siding Spring Survey.  Observer G. J. Garradd.  Measurers E. C. Beshore,
    C. M. Casey, E. J. Christensen, G. J. Garradd, A. D. Grauer, R. E. Hill,
    S. M. Larson, R. H. McNaught.  0.5-m Uppsala Schmidt + CCD.
I77 CEAMIG-REA Observatory, Belo Horizonte.  Observers C. Jacques, E. Pimentel.
    Measurer C. Jacques.  0.30-m f/3.0 Schmidt-Cassegrain + CCD.

Orbital elements:
2005 OX
Epoch 2005 July 9.0 TT = JDT 2453560.5                  MPC
M 298.60875              (2000.0)            P               Q
n   0.68038287     Peri.   99.76740     +0.42087437     -0.90430541
a   1.2802668      Node   325.06441     +0.77572699     +0.39959202
e   0.5951260      Incl.    7.16138     +0.47022590     +0.15019303
P   1.45           H   20.6           G   0.15
From 15 observations 2005 July 25-26.

Ephemeris:
2005 OX                  a,e,i = 1.28, 0.60, 7                   q = 0.5183
Date    TT    R. A. (2000) Decl.     Delta      r     Elong.  Phase     V
2005 07 19    21 19.57   -31 29.5    0.262    1.263   158.0    17.5    19.1
2005 07 24    21 06.92   -33 37.2    0.209    1.216   161.9    15.1    18.5
2005 07 29    20 43.57   -36 41.0    0.159    1.168   162.0    15.6    17.8
2005 08 03    19 55.66   -41 05.6    0.114    1.118   153.5    23.9    17.2
2005 08 08    18 01.96   -45 04.1    0.0776   1.067   131.0    45.9    16.9
2005 08 13    14 44.20   -33 25.5    0.0633   1.014    88.7    87.7    17.7
2005 08 18    12 40.79   -10 11.3    0.0825   0.960    48.5   127.8    20.6

Kyle E. Smalley              (C) Copyright 2005 MPC           M.P.E.C. 2005-O32

Read MPEC 2005-O31 Read MPEC 2005-O33


Our Web policy. Index to the CBAT/MPC/ICQ pages.


Valid HTML 4.01!